This is the latest recevied weather packets stored in our database for station/object K5FEP. If no packets are shown the sender has not sent any weather packets the latest 10 day(s).
| Time | Temp. | Humidity | Pressure | Rain* | Wind** | Luminosity | Snow |
|---|---|---|---|---|---|---|---|
| 1777346947 | 12.78° C | 66% | 1022.8 hPa | 0 mm | - | 0 W/m² | - |
| 1777346643 | 12.78° C | 67% | 1022.7 hPa | 0 mm | - | 0 W/m² | - |
| 1777346339 | 12.22° C | 67% | 1022.8 hPa | 0 mm | - | 0 W/m² | - |
| 1777346037 | 11.67° C | 69% | 1022.6 hPa | 0 mm | - | 0 W/m² | - |
| 1777345734 | 11.67° C | 71% | 1022.7 hPa | 0 mm | - | 0 W/m² | - |
| 1777345431 | 11.67° C | 74% | 1022.6 hPa | 0 mm | - | 0 W/m² | - |
| 1777345127 | 11.67° C | 72% | 1022.7 hPa | 0 mm | - | 0 W/m² | - |
| 1777344824 | 11.67° C | 73% | 1022.6 hPa | 0 mm | - | 0 W/m² | - |
| 1777344519 | 11.67° C | 73% | 1022.3 hPa | 0 mm | - | 0 W/m² | - |
| 1777344217 | 11.67° C | 73% | 1022.7 hPa | 0 mm | - | 0 W/m² | - |
| 1777343914 | 11.67° C | 74% | 1022.6 hPa | 0 mm | - | 0 W/m² | - |
| 1777343612 | 12.22° C | 73% | 1022.6 hPa | 0 mm | - | 0 W/m² | - |
| 1777343309 | 12.22° C | 73% | 1022.8 hPa | 0 mm | - | 0 W/m² | - |
| 1777343007 | 12.22° C | 75% | 1022.8 hPa | 0 mm | - | 0 W/m² | - |
| 1777342704 | 12.22° C | 75% | 1022.9 hPa | 0 mm | - | 0 W/m² | - |
| 1777342400 | 12.22° C | 72% | 1022.8 hPa | 0 mm | - | 0 W/m² | - |
| 1777342097 | 12.22° C | 71% | 1022.7 hPa | 0 mm | - | 0 W/m² | - |
| 1777341794 | 12.22° C | 70% | 1022.8 hPa | 0 mm | - | 0 W/m² | - |
| 1777341490 | 12.78° C | 71% | 1022.8 hPa | 0 mm | - | 0 W/m² | - |
| 1777341186 | 12.78° C | 71% | 1022.6 hPa | 0 mm | - | 0 W/m² | - |
| 1777340883 | 12.78° C | 70% | 1022.4 hPa | 0 mm | - | 0 W/m² | - |
| 1777340582 | 12.78° C | 67% | 1022.3 hPa | 0 mm | - | 0 W/m² | - |
| 1777340278 | 12.78° C | 65% | 1022.5 hPa | 0 mm | - | 0 W/m² | - |
| 1777339975 | 12.78° C | 66% | 1022.4 hPa | 0 mm | - | 0 W/m² | - |
| 1777339673 | 12.78° C | 69% | 1022.4 hPa | 0 mm | - | 0 W/m² | - |
* Rain latest hour (hover to see other rain measurements)
** Current wind speed in m/s (hover to see current wind gust speed)